Tracking 22879 objects as of 22-Apr-2021
HD Live streaming from Space Station
objects crossing your sky now

SL-8 DEB

Track SL-8 DEB now!
10-day predictions


NORAD ID: 21861
Int'l Code: 1991-009CA
Perigee: 1,471.2 km
Apogee: 1,686.6 km
Inclination: 74.0 °
Period: 117.6 minutes
Semi major axis: 7949 km
RCS: 0.0407 m2 (small)
Launch date: February 12, 1991
Source: Commonwealth of Independent States (former USSR) (CIS)
Launch site: PLESETSK MISSILE AND SPACE COMPLEX (PKMTR)

Note: This is SATELLITE DEBRIS
aabbcc
Your satellite tracking list
Your tracking list is empty




NASA's NSSDC Master Catalog

Two Line Element Set (TLE):
1 21861U 91009CA  21111.55022528  .00000029  00000-0  38958-3 0  9999
2 21861  74.0223 267.3766 0135494 326.5252 104.2647 12.24780582346226
Source of the keplerian elements: AFSPC